Wind_Speed
8 8 8 8 7 6 6 5 4 3 2 2 2 2 3 3 3 4 5 5 6 7 7 7 8 8 9 11 12 13 13 13 13 14 14 14 14 14 14 15 14 15 16 16 17 17 17 17 16 15 13 12
8 8 9 8 7 6 5 4 3 2 2 1 2 3 4 4 5 5 6 7 7 8 8 8 8 9 10 12 14 15 15 15 15 16 17 17 17 17 17 16 15 16 17 17 18 18 18 18 17 17 15 14
9 9 9 8 7 6 5 4 3 2 1 1 2 3 5 5 6 6 7 7 8 9 9 9 9 9 11 13 14 15 15 16 17 18 19 18 19 19 19 18 18 17 18 18 19 19 19 19 18 18 17 16
9 9 9 9 8 7 5 4 3 2 1 2 3 4 5 6 7 8 8 8 9 9 10 10 10 10 11 13 14 15 15 16 17 18 19 19 20 20 19 19 19 19 19 19 20 20 20 20 20 19 19 18
9 9 8 8 7 6 5 4 3 3 3 4 5 6 6 7 8 9 9 9 10 10 11 11 12 12 12 13 15 16 16 16 17 18 19 19 20 20 20 20 20 20 20 21 21 21 21 21 21 21 20 20
8 8 7 6 6 5 5 4 4 4 4 5 6 7 8 9 9 10 11 11 11 12 12 13 14 15 15 15 16 17 17 17 18 18 19 20 20 20 21 20 21 21 21 22 22 22 22 22 22 22 22 21
8 7 6 6 6 6 6 6 6 7 7 7 8 9 10 10 12 12 13 14 14 14 15 16 17 17 18 18 18 18 19 19 19 19 20 20 20 20 21 21 21 21 22 22 23 23 23 23 24 24 23 23
8 7 7 7 7 7 7 8 8 8 9 9 10 11 12 13 14 15 16 16 17 17 17 18 19 19 19 19 19 19 19 20 20 20 20 20 20 20 20 20 21 21 22 22 23 23 24 24 25 25 25 24
9 9 9 9 8 8 8 8 9 9 11 11 13 13 14 15 16 16 17 17 18 18 18 18 19 19 19 19 19 19 19 20 20 20 20 19 19 19 19 20 20 20 21 22 22 23 23 24 25 26 26 26
10 9 9 9 8 9 9 9 10 11 12 13 14 14 15 16 16 16 17 17 17 17 17 18 18 18 18 18 19 19 19 19 20 20 20 19 19 19 19 19 20 20 20 21 21 22 23 23 24 25 26 27
9 9 9 9 9 9 10 10 11 12 12 13 14 14 15 14 14 14 15 15 16 16 17 17 17 17 17 17 18 19 19 19 20 20 20 20 20 20 20 20 21 21 21 21 21 22 22 23 23 24 25 27
9 9 9 9 10 10 10 11 11 12 12 13 13 13 13 12 12 12 13 14 15 16 17 17 16 16 17 17 18 19 19 20 20 20 21 21 21 22 22 22 22 22 22 23 23 22 22 23 23 23 24 25
9 9 9 9 10 10 10 10 11 11 11 11 11 11 11 11 11 12 13 14 14 15 15 15 16 16 16 17 18 19 19 20 20 21 21 22 22 23 23 23 24 24 24 24 24 24 24 24 24 24 24 25
8 8 8 9 9 9 9 9 9 9 8 8 8 8 9 9 9 10 11 12 13 14 14 15 16 16 17 17 18 19 19 20 21 21 21 22 23 24 24 24 25 25 25 25 25 25 25 25 25 25 25 25
8 7 7 6 5 5 5 5 6 6 6 7 7 8 9 9 10 10 11 12 13 14 14 15 16 17 17 18 19 19 19 20 20 21 21 22 23 24 25 25 25 25 25 25 26 26 26 26 26 26 26 26
5 3 1 1 2 4 5 5 6 7 7 8 9 9 10 11 12 13 13 14 15 16 16 16 17 17 18 18 19 20 20 20 21 21 22 23 23 24 25 25 25 25 25 25 25 25 26 26 26 26 26 26
4 3 4 5 5 6 6 6 7 7 7 7 8 9 10 11 12 13 14 15 16 17 17 18 18 18 18 19 19 20 20 20 21 22 22 23 24 24 25 25 25 25 25 25 25 25 25 25 25 25 25 25
6 6 7 7 7 7 7 7 7 7 7 7 8 9 10 11 12 13 14 15 16 16 17 18 18 18 19 20 21 22 22 22 22 22 22 23 24 24 25 25 25 25 25 25 25 25 25 25 25 26 25 25
6 7 7 7 7 7 7 7 8 8 8 9 10 11 12 13 15 16 17 18 19 19 20 20 20 20 21 22 23 23 24 25 24 24 24 23 23 23 24 24 24 24 25 25 25 25 26 26 26 26 27 27
5 5 6 6 7 7 7 8 9 10 11 12 13 14 16 17 18 19 20 21 22 22 23 23 23 23 24 24 25 25 26 26 26 26 27 25 24 24 24 24 25 25 25 26 26 26 26 26 27 27 28 28
3 3 4 4 6 7 7 9 10 12 13 15 16 17 19 20 21 22 23 24 25 25 25 26 26 26 26 27 28 28 28 28 28 28 29 28 27 27 27 26 27 27 26 27 28 28 28 28 28 28 28 28
1 2 3 4 6 8 9 11 13 15 17 18 20 21 22 23 24 25 25 27 27 27 28 27 28 28 28 29 29 30 29 29 28 29 29 30 29 29 30 30 29 29 29 30 31 31 30 29 30 30 30 29
2 3 5 6 8 11 13 15 17 19 21 23 24 25 26 26 27 28 28 28 28 28 28 28 28 29 29 29 29 30 30 29 29 29 29 30 30 30 31 31 31 31 31 32 33 34 34 33 33 32 30 31
5 7 9 11 14 15 17 19 21 23 25 27 28 29 29 29 29 28 28 27 26 25 25 25 26 26 27 27 28 28 28 28 28 29 29 29 30 30 30 31 31 31 31 32 35 36 36 33 32 33 32 31
10 13 15 17 19 21 22 25 26 28 30 31 31 31 30 29 28 26 24 24 23 23 23 23 23 24 25 25 26 27 27 28 28 28 29 29 29 30 30 30 30 30 31 32 32 30 27 25 27 32 33 30
15 17 19 21 23 25 27 28 30 31 33 33 33 32 30 27 25 23 22 22 22 22 22 22 22 23 23 24 25 26 27 27 28 28 28 28 29 29 30 30 30 30 30 29 26 24 23 24 24 23 24 27
18 20 22 24 26 28 30 31 33 34 34 34 33 30 28 25 24 22 22 22 22 22 22 23 23 23 24 24 24 25 26 27 27 28 28 28 28 29 29 29 29 29 29 28 25 23 22 22 19 16 17 20
22 24 26 28 29 31 32 33 34 34 33 33 31 27 25 23 23 22 22 22 22 22 22 23 23 24 24 24 24 24 25 25 26 27 28 28 28 28 28 27 26 26 26 28 25 19 17 17 18 18 14 13
26 28 30 32 33 34 34 34 34 34 33 31 28 25 23 22 22 22 22 22 22 22 22 22 22 22 22 22 22 21 22 22 23 24 25 26 27 27 27 26 27 27 26 28 27 23 20 17 16 17 15 15
30 32 33 34 35 35 34 34 33 31 30 28 26 24 23 22 22 22 22 21 21 21 21 21 21 21 21 21 21 21 21 21 21 22 23 24 25 26 26 27 28 29 27 27 28 29 29 25 23 23 21 21
34 35 35 35 34 33 31 30 29 27 26 25 24 23 23 22 22 21 22 21 21 21 21 21 21 22 22 22 22 22 22 21 21 21 22 22 23 24 25 25 26 27 26 24 24 25 28 31 32 31 29 25
Wind_Direction
145 146 144 139 133 130 124 120 114 106 90 66 24 355 346 337 330 327 323 323 323 324 327 327 326 327 325 323 325 328 330 329 327 324 322 322 323 321 321 326 328 325 324 323 322 322 324 326 323 321 320 319
147 149 146 142 138 134 132 129 125 113 83 31 353 337 331 326 322 319 319 319 318 318 318 319 320 320 319 316 318 320 323 322 321 318 316 317 317 316 317 320 320 318 319 318 318 318 320 322 320 319 318 317
149 151 148 145 143 141 142 141 138 129 99 350 325 318 316 315 315 315 316 317 316 315 314 315 316 315 313 311 313 315 317 317 316 313 312 313 311 312 313 314 313 313 313 312 313 314 316 317 316 317 315 315
153 153 152 151 152 152 154 156 161 173 219 268 284 291 299 302 308 311 311 312 312 311 311 313 313 313 311 310 311 313 315 314 312 309 309 309 308 309 308 308 308 308 307 307 308 308 310 311 312 312 312 313
161 160 159 159 161 163 168 174 187 206 242 263 275 284 291 297 302 304 304 305 307 310 311 314 316 316 314 313 313 314 316 314 311 308 308 309 309 310 309 307 306 304 304 302 303 304 305 306 307 308 308 309
170 170 168 172 177 183 194 200 214 225 241 258 270 280 286 291 295 297 300 303 307 313 316 319 321 321 320 320 320 319 319 317 314 312 312 312 312 313 312 310 308 305 303 300 300 299 300 300 301 302 303 304
180 183 185 193 200 208 217 220 229 236 244 254 263 274 282 289 294 298 302 307 314 320 323 325 326 325 326 326 326 324 322 320 318 316 316 317 316 316 315 314 312 309 307 303 300 298 296 296 295 297 298 298
195 200 205 213 219 224 231 236 242 250 258 267 275 283 291 297 301 304 307 313 320 324 327 328 327 327 328 328 326 325 323 321 319 319 319 319 318 317 317 316 315 313 311 307 304 300 296 294 292 292 292 293
209 214 221 228 234 241 245 252 258 265 274 281 288 294 300 303 305 307 310 314 319 322 325 326 326 326 326 326 324 323 322 320 320 320 319 319 319 317 317 316 315 314 313 311 308 305 300 296 293 291 289 289
222 228 237 244 248 254 255 259 264 270 278 284 290 295 298 301 302 306 309 312 316 318 320 321 322 322 322 323 321 319 319 319 319 320 319 319 318 317 316 315 314 313 311 310 309 307 305 302 297 293 290 288
233 240 245 251 251 254 256 260 267 271 277 282 286 289 291 295 299 303 306 308 309 311 314 316 318 319 320 321 318 317 317 318 318 319 319 319 318 317 316 315 313 312 311 309 307 307 305 304 302 298 294 291
234 239 242 245 249 253 258 264 269 273 277 281 282 284 286 289 293 297 300 302 304 309 313 316 318 319 320 320 317 316 316 316 316 316 317 317 316 316 315 314 313 311 310 308 306 305 304 302 301 300 298 295
224 230 237 242 251 257 262 267 270 273 276 279 281 283 286 289 294 298 301 304 308 312 316 317 318 319 320 319 315 315 314 314 314 314 314 314 314 313 313 312 311 310 308 307 305 303 302 299 298 298 297 295
217 226 238 246 255 261 266 271 273 277 277 278 283 285 290 294 298 302 306 309 312 314 315 316 317 318 318 317 314 314 313 312 312 312 312 312 311 311 311 310 309 309 308 306 305 303 301 298 296 295 294 293
215 224 236 248 261 274 288 298 305 309 309 310 309 305 304 304 304 306 307 307 308 310 311 313 314 315 314 314 312 311 311 310 310 310 310 309 309 309 309 309 309 308 308 307 306 304 301 299 297 295 294 292
198 202 218 312 336 341 345 343 343 341 338 336 330 326 321 318 316 313 311 308 307 308 309 309 310 310 310 309 308 307 306 307 307 307 307 306 306 307 307 307 307 307 307 307 306 304 303 302 300 298 295 293
119 83 53 31 19 11 7 0 357 354 351 350 343 337 332 328 325 321 317 314 313 313 312 311 310 310 309 305 302 301 302 304 305 305 305 305 305 306 306 307 307 307 307 306 306 304 303 303 302 301 298 296
78 61 48 35 28 21 15 9 4 0 356 352 347 339 335 333 329 325 321 318 318 317 314 313 312 311 308 302 300 300 300 300 300 301 303 304 304 305 306 306 306 305 305 305 304 304 303 302 302 301 299 298
67 53 43 32 25 16 7 1 352 344 339 334 332 329 326 325 323 321 318 316 315 314 312 310 308 307 304 301 300 299 297 296 296 295 295 297 299 301 303 303 303 303 303 302 301 302 301 301 301 300 299 298
62 49 35 22 13 3 354 346 336 330 326 323 321 319 317 317 316 315 313 312 311 310 309 306 305 303 301 299 299 297 295 293 292 290 290 290 291 291 293 295 297 299 300 300 299 299 299 299 299 298 298 298
63 40 21 5 351 343 337 331 326 324 321 319 316 315 314 313 312 311 309 308 307 307 305 302 301 299 298 297 296 296 293 291 288 287 287 287 287 287 288 289 291 293 294 295 295 296 297 297 297 296 296 297
45 2 346 334 329 326 324 322 321 321 320 318 316 314 313 312 311 309 308 306 304 303 300 299 297 296 295 294 293 292 291 290 288 286 285 284 284 284 285 287 288 290 291 291 292 293 294 294 295 295 295 295
324 312 310 310 313 314 314 317 319 320 319 319 317 316 314 313 312 310 308 305 302 300 297 295 294 292 291 290 290 289 289 289 288 286 284 283 283 282 282 284 285 287 289 290 292 293 294 294 293 291 292 293
298 302 305 306 307 310 313 316 319 320 321 321 320 318 317 316 313 311 309 305 303 300 298 295 293 291 290 288 288 288 288 287 287 286 285 284 283 282 282 282 284 286 286 288 291 294 297 298 296 295 294 294
314 315 315 317 318 319 322 323 324 325 324 324 323 321 319 317 314 311 308 306 305 303 301 299 297 295 293 291 290 289 288 288 286 285 284 284 283 283 283 282 283 284 286 289 292 296 299 296 296 298 298 297
326 326 325 326 325 325 326 327 326 326 325 324 324 323 320 317 314 311 310 308 307 305 304 303 301 299 297 295 294 292 290 289 287 285 283 284 284 284 284 284 284 284 286 289 290 295 295 293 297 292 291 299
327 326 324 324 323 322 324 324 324 324 324 323 322 320 317 316 313 312 312 310 309 308 307 306 304 303 301 300 298 295 294 291 288 286 284 283 284 284 284 285 286 286 287 287 287 291 289 293 302 293 290 295
325 322 321 320 320 321 321 322 322 321 321 320 319 317 315 314 313 312 312 310 309 308 306 305 304 303 302 301 300 298 296 294 291 289 287 285 283 283 285 285 285 285 285 285 285 285 282 289 293 286 290 291
323 322 320 320 320 320 320 320 320 319 319 317 317 316 314 313 312 311 309 308 306 304 302 301 300 300 299 299 299 299 297 296 294 292 290 288 285 283 283 283 283 281 280 281 280 275 274 281 282 278 289 298
324 323 322 322 322 322 321 321 321 321 320 319 318 318 316 315 314 311 310 309 308 306 305 304 303 302 301 300 300 299 299 298 297 294 290 288 286 285 282 282 282 281 280 279 278 275 271 267 267 274 285 292
326 325 324 324 324 323 323 322 322 321 320 319 318 318 316 315 314 312 311 310 309 309 308 307 306 305 304 303 303 302 301 301 299 297 294 292 290 288 285 283 282 282 281 279 277 276 274 271 268 269 272 274
Height
1556 1556 1556 1556 1556 1555 1555 1555 1555 1554 1554 1553 1553 1552 1551 1550 1550 1549 1548 1548 1547 1546 1546 1546 1545 1545 1544 1543 1543 1542 1542 1541 1541 1540 1539 1539 1539 1538 1537 1536 1536 1535 1534 1534 1533 1533 1533 1533 1533 1533 1533 1533
1555 1555 1555 1555 1555 1555 1555 1554 1554 1554 1553 1553 1552 1551 1550 1549 1549 1548 1547 1547 1546 1545 1545 1545 1544 1544 1543 1542 1542 1541 1541 1540 1539 1539 1538 1538 1537 1537 1536 1536 1535 1534 1534 1533 1532 1532 1532 1532 1532 1532 1532 1532
1555 1555 1555 1555 1554 1554 1554 1554 1553 1553 1552 1552 1551 1550 1549 1549 1548 1547 1546 1546 1545 1545 1544 1544 1544 1543 1543 1542 1541 1540 1540 1539 1539 1538 1537 1537 1536 1536 1535 1535 1534 1534 1533 1532 1531 1531 1531 1531 1531 1530 1530 1530
1554 1554 1554 1554 1553 1553 1553 1553 1552 1552 1551 1550 1550 1549 1548 1548 1547 1546 1546 1545 1544 1544 1543 1543 1543 1543 1542 1541 1540 1539 1539 1539 1538 1537 1536 1535 1535 1534 1534 1534 1533 1533 1532 1531 1530 1530 1530 1529 1529 1529 1529 1529
1553 1553 1552 1552 1552 1552 1552 1551 1551 1550 1550 1549 1549 1548 1547 1547 1546 1545 1545 1544 1543 1543 1542 1542 1541 1541 1541 1540 1539 1538 1538 1537 1537 1536 1535 1534 1533 1533 1532 1532 1532 1531 1531 1530 1529 1529 1528 1528 1528 1527 1527 1527
1552 1552 1552 1551 1551 1551 1551 1550 1550 1549 1549 1548 1547 1547 1546 1545 1545 1544 1544 1543 1542 1542 1541 1540 1540 1539 1539 1539 1538 1537 1536 1536 1535 1534 1534 1533 1532 1532 1531 1530 1530 1529 1529 1528 1528 1527 1527 1527 1526 1526 1526 1525
1551 1551 1550 1550 1550 1549 1549 1548 1548 1548 1547 1547 1546 1546 1545 1545 1544 1543 1543 1542 1541 1541 1540 1539 1539 1538 1537 1537 1536 1536 1535 1534 1533 1533 1532 1531 1531 1530 1529 1529 1528 1528 1527 1527 1526 1526 1526 1525 1524 1524 1524 1524
1550 1550 1549 1549 1548 1548 1548 1547 1547 1547 1546 1546 1545 1545 1544 1544 1543 1543 1542 1541 1540 1540 1539 1538 1537 1537 1536 1535 1535 1534 1533 1532 1532 1531 1530 1530 1529 1529 1528 1527 1527 1526 1525 1525 1524 1524 1524 1523 1523 1522 1522 1522
1548 1548 1548 1547 1547 1547 1547 1547 1546 1546 1545 1545 1544 1544 1544 1543 1542 1542 1541 1540 1540 1539 1538 1537 1536 1536 1535 1534 1533 1532 1532 1531 1530 1530 1529 1528 1528 1527 1526 1526 1525 1524 1524 1523 1523 1522 1522 1521 1521 1521 1520 1520
1547 1547 1547 1547 1547 1546 1546 1546 1545 1545 1544 1544 1543 1543 1542 1542 1542 1541 1540 1540 1539 1538 1537 1536 1535 1535 1534 1533 1532 1531 1530 1529 1529 1528 1527 1527 1526 1525 1524 1524 1523 1523 1522 1522 1521 1520 1520 1520 1519 1518 1518 1517
1546 1546 1546 1546 1545 1545 1545 1544 1544 1543 1543 1542 1542 1541 1541 1541 1540 1540 1539 1538 1537 1536 1536 1535 1534 1534 1533 1532 1530 1529 1529 1528 1527 1526 1526 1525 1524 1523 1523 1522 1521 1521 1520 1520 1519 1519 1518 1517 1517 1516 1516 1515
1545 1545 1544 1544 1544 1543 1543 1543 1542 1542 1541 1541 1540 1540 1539 1539 1538 1538 1537 1536 1536 1535 1534 1534 1533 1532 1531 1530 1529 1528 1528 1527 1526 1525 1524 1523 1522 1521 1520 1520 1519 1518 1518 1517 1517 1517 1516 1515 1515 1514 1513 1513
1544 1543 1543 1543 1542 1542 1542 1541 1541 1540 1540 1539 1539 1538 1538 1537 1537 1536 1536 1535 1534 1534 1533 1532 1531 1530 1529 1529 1528 1527 1526 1525 1524 1523 1522 1521 1520 1519 1519 1518 1517 1516 1516 1515 1514 1514 1514 1513 1512 1512 1511 1510
1543 1542 1542 1542 1541 1541 1540 1540 1539 1539 1539 1538 1537 1537 1536 1535 1535 1534 1534 1533 1533 1532 1531 1530 1529 1528 1528 1527 1526 1525 1525 1523 1522 1521 1520 1519 1518 1517 1517 1516 1515 1514 1513 1513 1512 1511 1511 1510 1510 1509 1509 1508
1542 1541 1541 1541 1540 1540 1539 1539 1538 1538 1538 1537 1536 1536 1535 1534 1534 1533 1532 1532 1531 1530 1529 1528 1527 1527 1526 1526 1525 1524 1523 1522 1521 1520 1519 1518 1517 1515 1514 1513 1512 1511 1511 1510 1509 1508 1508 1507 1507 1506 1506 1505
1541 1541 1540 1540 1540 1539 1539 1538 1538 1537 1537 1537 1536 1535 1535 1534 1533 1532 1531 1530 1529 1528 1527 1527 1526 1525 1525 1524 1523 1522 1521 1520 1519 1517 1517 1515 1514 1513 1512 1511 1510 1509 1508 1508 1507 1506 1505 1504 1504 1504 1503 1503
1541 1540 1540 1540 1539 1539 1538 1538 1537 1537 1537 1536 1535 1535 1534 1533 1532 1531 1530 1529 1528 1527 1526 1525 1525 1524 1523 1522 1521 1520 1518 1517 1516 1515 1514 1513 1512 1511 1510 1508 1507 1506 1506 1505 1504 1504 1503 1502 1501 1501 1500 1500
1540 1540 1540 1540 1539 1539 1538 1538 1537 1537 1537 1536 1535 1534 1533 1532 1531 1530 1529 1528 1527 1526 1525 1524 1523 1523 1522 1520 1519 1518 1517 1515 1514 1513 1512 1511 1509 1508 1507 1506 1505 1504 1503 1503 1502 1501 1500 1500 1499 1498 1497 1497
1540 1540 1540 1539 1539 1539 1538 1538 1538 1537 1536 1536 1535 1534 1533 1532 1530 1529 1528 1526 1525 1524 1523 1522 1521 1521 1520 1518 1517 1516 1515 1513 1512 1511 1510 1509 1508 1506 1505 1504 1503 1502 1501 1500 1500 1499 1498 1497 1496 1495 1495 1494
1540 1539 1539 1539 1539 1538 1538 1538 1537 1537 1536 1535 1534 1533 1531 1530 1529 1527 1526 1524 1523 1522 1521 1520 1519 1518 1517 1515 1514 1513 1512 1511 1510 1509 1508 1507 1506 1504 1503 1502 1501 1500 1499 1498 1497 1496 1495 1495 1494 1493 1492 1491
1539 1539 1539 1539 1538 1538 1538 1537 1537 1536 1535 1534 1533 1531 1530 1529 1527 1526 1524 1523 1521 1520 1519 1518 1517 1515 1514 1512 1511 1510 1509 1509 1508 1506 1505 1504 1504 1502 1501 1500 1499 1498 1497 1495 1494 1493 1493 1492 1491 1490 1489 1488
1539 1539 1539 1538 1538 1537 1537 1536 1535 1535 1534 1533 1531 1530 1528 1527 1525 1523 1522 1520 1519 1518 1516 1515 1514 1512 1511 1509 1508 1507 1506 1506 1505 1503 1502 1501 1501 1500 1498 1498 1497 1496 1495 1493 1491 1490 1490 1489 1488 1487 1486 1485
1538 1538 1538 1537 1537 1536 1535 1535 1534 1533 1532 1531 1529 1527 1526 1524 1523 1521 1519 1518 1516 1514 1513 1511 1510 1509 1508 1506 1505 1504 1503 1502 1501 1500 1499 1498 1498 1497 1496 1495 1494 1493 1492 1490 1488 1487 1486 1486 1485 1484 1483 1482
1538 1537 1537 1536 1536 1535 1534 1533 1532 1531 1530 1528 1527 1525 1523 1522 1520 1518 1516 1514 1513 1511 1509 1508 1507 1506 1505 1504 1503 1501 1500 1499 1498 1497 1496 1495 1494 1494 1493 1492 1492 1491 1489 1488 1486 1484 1483 1482 1480 1479 1479 1479
1537 1536 1535 1534 1533 1533 1532 1530 1529 1528 1526 1525 1524 1522 1520 1519 1517 1515 1513 1511 1510 1508 1506 1505 1504 1503 1502 1501 1500 1498 1497 1495 1495 1494 1494 1493 1491 1491 1490 1489 1489 1488 1487 1485 1484 1482 1480 1479 1477 1475 1474 1474
1536 1535 1534 1533 1532 1531 1529 1528 1526 1525 1523 1521 1520 1518 1516 1515 1513 1512 1510 1508 1507 1505 1504 1503 1502 1501 1500 1498 1497 1495 1494 1493 1492 1492 1491 1490 1489 1488 1487 1486 1486 1485 1484 1483 1482 1481 1479 1476 1475 1473 1470 1469
1535 1534 1533 1532 1531 1529 1528 1526 1524 1522 1521 1519 1517 1516 1514 1512 1510 1509 1507 1506 1504 1503 1502 1500 1499 1498 1496 1495 1494 1492 1491 1490 1490 1489 1488 1487 1486 1485 1484 1483 1483 1482 1481 1481 1481 1480 1478 1475 1474 1472 1470 1468
1534 1533 1532 1530 1529 1527 1526 1524 1522 1520 1518 1516 1515 1513 1511 1510 1508 1506 1505 1503 1502 1500 1499 1498 1496 1495 1494 1492 1491 1490 1489 1488 1487 1486 1485 1484 1484 1483 1481 1480 1480 1479 1478 1478 1479 1479 1477 1475 1473 1470 1469 1468
1533 1532 1530 1528 1527 1525 1523 1521 1519 1517 1515 1514 1512 1510 1509 1507 1506 1504 1502 1501 1500 1498 1497 1496 1494 1493 1491 1490 1489 1488 1487 1485 1484 1483 1482 1481 1481 1480 1479 1477 1476 1476 1476 1475 1476 1476 1475 1474 1472 1468 1468 1467
1532 1530 1528 1526 1524 1522 1520 1518 1516 1514 1512 1510 1508 1507 1506 1504 1503 1502 1500 1499 1497 1496 1494 1493 1491 1490 1489 1488 1487 1486 1484 1483 1481 1480 1480 1479 1477 1477 1476 1475 1473 1472 1473 1472 1472 1472 1472 1472 1470 1468 1467 1466
1530 1528 1526 1523 1521 1519 1517 1515 1513 1511 1509 1507 1506 1505 1503 1502 1501 1499 1497 1496 1495 1493 1491 1490 1489 1488 1486 1485 1484 1483 1481 1480 1479 1478 1477 1476 1475 1473 1473 1472 1470 1469 1469 1469 1468 1468 1467 1467 1467 1467 1466 1465